* Astronomy

Members Login
Post Info TOPIC: Asteroid 2011 JV10


L

Posts: 131433
Date:
RE: Asteroid 2011 JV10
Permalink  
 


Object
Name
Close
Approach
Date
Miss
Distance
(AU)
Miss
Distance
(LD)
Estimated
Diameter
H
(mag)
Relative
Velocity
(km/s)
(2011 JV10) 2011-May-050.00230.93.0 m - 6.8 m29.75.34


__________________


L

Posts: 131433
Date:
Permalink  
 

Orbital elements:
2011 JV10                                                Earth MOID = 0.0013 AU
Epoch 2011 Feb. 8.0 TT = JDT 2455600.5                  MPC
M 339.20656              (2000.0)            P               Q
n   0.84607794     Peri.  289.60152     -0.88271889     -0.46938857
a   1.1071228      Node   222.41164     +0.44240216     -0.81440977
e   0.1919839      Incl.    1.86488     +0.15839093     -0.34119070
P   1.16           H   29.7           G   0.15           U   7

MPEC 2011 - J37



__________________
Page 1 of 1  sorted by
 
Quick Reply

Please log in to post quick replies.



Create your own FREE Forum
Report Abuse
Powered by ActiveBoard